Location: Jodlow
(50.1500°N, 16.7500°E)
Time: 04:31:49
(UTC+02:00)

ISS - Visible Passes

Search period start: 12 September 2024 00:00
Search period end: 22 September 2024 00:00
Orbit: 415 x 425 km, 51.6° (Epoch: 11 September)

Date Brightness Start Highest point End Pass type
(mag) Time Alt. Az. Time Alt. Az. Time Alt. Az.
12 Sep -2.9 20:39:41 10° SSW 20:42:40 30° SSE 20:42:53 30° SE visible
13 Sep -2.3 19:52:46 10° SSW 19:55:21 21° SE 19:57:46 11° E visible
13 Sep -2.8 21:28:27 10° WSW 21:30:45 40° WSW 21:30:45 40° WSW visible
14 Sep -3.7 20:41:01 10° SW 20:44:20 59° SSE 20:45:23 37° E visible
14 Sep -0.8 22:17:49 10° W 22:18:20 14° W 22:18:20 14° W visible
15 Sep -3.3 19:53:38 10° SW 19:56:50 42° SSE 19:59:50 11° E visible
15 Sep -2.9 21:30:12 10° W 21:32:48 49° WNW 21:32:48 49° WNW visible
16 Sep -3.8 20:42:33 10° WSW 20:45:55 84° NNW 20:47:06 38° ENE visible
16 Sep -0.7 22:19:30 10° WNW 22:20:03 14° WNW 22:20:03 14° WNW visible
17 Sep -3.8 19:54:54 10° WSW 19:58:15 78° SSE 20:01:17 12° ENE visible
17 Sep -2.5 21:31:48 10° W 21:34:14 42° WNW 21:34:14 42° WNW visible
18 Sep -3.6 20:44:02 10° W 20:47:23 67° N 20:48:19 42° ENE visible
18 Sep -0.5 22:20:56 10° WNW 22:21:15 12° WNW 22:21:15 12° WNW visible
19 Sep -3.6 19:56:14 10° W 19:59:34 73° N 20:02:19 15° ENE visible
19 Sep -2.2 21:33:09 10° WNW 21:35:15 35° WNW 21:35:15 35° WNW visible
20 Sep -3.6 20:45:18 10° WNW 20:48:40 68° N 20:49:11 55° ENE visible
21 Sep -3.5 19:57:24 10° W 20:00:44 65° N 20:03:04 18° E visible
21 Sep -1.8 21:34:15 10° WNW 21:36:00 28° W 21:36:00 28° W visible
